Weather History for KSJT - February, 2014

Change the Weather History Date:

Friday, February 28, 2014

  Actual Average Record
Temperature  
Mean Temperature 64 °F 53 °F  
Max Temperature 86 °F 67 °F 89 °F (2006)
Min Temperature 41 °F 40 °F 14 °F (1924)
Degree Days  
Heating Degree Days 1 12  
Month to date heating degree days 432 416  
Since 1 July heating degree days 2120 1961  
Cooling Degree Days 0 0  
Month to date cooling degree days 3 4  
Year to date cooling degree days 3 5  
Growing Degree Days 14 (Base 50)    
Moisture  
Dew Point 31 °F    
Average Humidity 49    
Maximum Humidity 89    
Minimum Humidity 9    
Precipitation  
Precipitation 0.00 in 0.05 in 0.59 in (1981)
Month to date precipitation 0.06 1.35  
Year to date precipitation 0.06 2.28  
Snow  
Snow 0.00 in 0.00 in 0.00 in (2011)
Month to date snowfall 0.1 0.3  
Since 1 July snowfall 1.6 2.1  
Snow Depth 0.00 in    
Sea Level Pressure  
Sea Level Pressure 29.78 in    
Wind  
Wind Speed 13 mph (SW)    
Max Wind Speed 28 mph    
Max Gust Speed 33 mph    
Visibility 10 miles    
Events      
T = Trace of Precipitation, MM = Missing Value Source: NWS Daily Summary

Daily Weather History Graph

Daily Weather History Graph

Search for Another Location

Airport or City:

Trip Planner

Search our weather history database for the weather conditions in past years. The results will help you decide how hot, cold, wet, or windy it might be!

Date:

Astronomy

Feb. 28, 2014 Rise Set
Actual Time 7:09 AM CST 6:39 PM CST
Civil Twilight 6:45 AM CST 7:03 PM CST
Nautical Twilight 6:17 AM CST 7:32 PM CST
Astronomical Twilight 5:49 AM CST 8:00 PM CST
Moon 6:25 AM CST (2/28) 6:17 PM CST (2/28)
Length of Visible Light 12h 18m
Length of Day
11h 29m
Waning Crescent, 1% of the Moon is Illuminated
Feb 28
Waning Crescent
Mar 1
New
Mar 8
First Quarter
Mar 16
Full
Mar 23
Last Quarter

Hourly Weather History & Observations

Time (CST) Temp. Windchill Dew Point Humidity Pressure Visibility Wind Dir Wind Speed Gust Speed Precip Events Conditions
12:51 AM 46.0 °F 38.5 °F 37.0 °F 71% 29.77 in 10.0 mi SSW 19.6 mph 25.3 mph N/A   Clear
1:51 AM 46.0 °F 38.0 °F 37.0 °F 71% 29.76 in 10.0 mi SSW 21.9 mph 28.8 mph N/A   Clear
2:51 AM 46.0 °F 39.6 °F 37.0 °F 71% 29.75 in 10.0 mi SW 15.0 mph 23.0 mph N/A   Clear
3:51 AM 45.0 °F 38.5 °F 37.9 °F 76% 29.75 in 10.0 mi SSW 13.8 mph - N/A   Clear
4:51 AM 44.1 °F 39.0 °F 39.0 °F 82% 29.75 in 10.0 mi SW 9.2 mph - N/A   Clear
5:51 AM 44.1 °F 37.1 °F 39.0 °F 82% 29.76 in 10.0 mi SW 15.0 mph - N/A   Clear
6:51 AM 42.1 °F 36.6 °F 37.9 °F 85% 29.81 in 10.0 mi WSW 9.2 mph - N/A   Clear
7:51 AM 43.0 °F 36.8 °F 39.9 °F 89% 29.84 in 8.0 mi SW 11.5 mph - N/A   Clear
8:51 AM 50.0 °F - 41.0 °F 71% 29.85 in 10.0 mi SW 17.3 mph - N/A   Clear
9:51 AM 57.9 °F - 41.0 °F 53% 29.85 in 10.0 mi SW 12.7 mph - N/A   Clear
10:51 AM 69.1 °F - 37.9 °F 32% 29.83 in 10.0 mi WSW 13.8 mph 20.7 mph N/A   Clear
11:51 AM 77.0 °F - 30.9 °F 19% 29.81 in 10.0 mi West 16.1 mph 25.3 mph N/A   Clear
12:51 PM 82.0 °F - 25.0 °F 12% 29.78 in 10.0 mi West 18.4 mph 28.8 mph N/A   Clear
1:51 PM 84.0 °F - 21.9 °F 10% 29.74 in 10.0 mi West 21.9 mph 28.8 mph N/A   Clear
2:51 PM 86.0 °F - 21.9 °F 10% 29.73 in 10.0 mi West 18.4 mph - N/A   Clear
3:51 PM 84.9 °F - 19.9 °F 9% 29.71 in 10.0 mi West 12.7 mph - N/A   Clear
4:51 PM 84.9 °F - 19.9 °F 9% 29.72 in 10.0 mi WSW 13.8 mph 20.7 mph N/A   Clear
5:51 PM 82.9 °F - 19.9 °F 10% 29.73 in 10.0 mi WNW 9.2 mph - N/A   Clear
6:51 PM 75.0 °F - 19.9 °F 13% 29.76 in 10.0 mi WSW 3.5 mph - N/A   Clear
7:51 PM 66.0 °F - 19.0 °F 17% 29.79 in 10.0 mi SW 4.6 mph - N/A   Clear
8:51 PM 63.0 °F - 30.0 °F 29% 29.81 in 10.0 mi South 8.1 mph - N/A   Clear
9:51 PM 60.1 °F - 28.9 °F 31% 29.83 in 10.0 mi SSW 4.6 mph - N/A   Clear
10:51 PM 55.0 °F - 33.1 °F 43% 29.84 in 10.0 mi SSW 9.2 mph - N/A   Clear
11:51 PM 55.9 °F - 34.0 °F 44% 29.84 in 10.0 mi SSW 5.8 mph - N/A   Clear